Back to catalog

NOAA 16 DEB

AliveSSO
NORAD 41716·DEBRIS·🇺🇸 United States

Launched Sep 21, 2000 from Vandenberg Space Force Base

Loading…

Next Passes (next 24 hours)

TLE

FreshSource: Space-Track

Epoch: Sep 14, 2026, 10:33 UTC

1 41716U 00055PW  26257.44002003  .00001878  00000-0  76175-3 0  9997
2 41716  98.6277 324.1718 0003270 246.4218 113.6621 14.28846664539090

Track NOAA 16 DEB in real time with AllMySat

Download on the App Store